Flag for United Arab Emirates Weather past 2 weeks in Ajmān, Ajman, United Arab Emirates

Now
104 °F

Sunny.


Feels Like: 119 °F
Forecast: 89 / 99 °F
Wind: 10 mph from Northwest

Location: Sharjah International Airport

Current Time: Jul 7, 2015 at 3:26:12 PM

Latest Report: Jul 7, 2015 at 3:00 PM


Visibility: 10 mi

Pressure: 29.36 "Hg

Humidity: 40%

Dew point: 75 °F

Location of AjmānLocation

Historic Weather in Ajmān — Graph

°F

Ajmān temperature yesterday

Maximum temperature yesterday: 100 °F (at 10:00 AM)
Minimum temperature yesterday: 88 °F (at 2:00 AM)
Average temperature yesterday: 95 °F

Past Weeks' High & Low Weather Summary

 TemperatureHumidityPressure
High115 °F (Jul 3, 1:00 PM)94% (Jul 2, 1:00 AM)29.65 "Hg (Jul 2, 1:00 AM)
Low70 °F (Jul 2, 1:00 AM)11% (Jul 3, 1:00 PM)29.36 "Hg (Jun 22, 3:00 PM)
Average95 °F41%29.52 "Hg
* Reported Jun 22 2:00 PM — Jul 7 2:00 PM, Ajmān, Weather by CustomWeather, © 2015

Note: Actual official high and low records may vary slightly from our data, if they occured in-between our weather recording intervals... More about our weather records

Advertising

Ajmān weather history for previous 24 hours

 ConditionsComfort  
Time TempWeatherWind HumidityBarometerVisibility
2:00 PM
Tue, Jul 7
102 °FSunny.10 mph45%29.39 "Hg10 mi
1:00 PM102 °FSunny.9 mph48%29.39 "Hg10 mi
12:00 PM102 °FPassing clouds.10 mph35%29.42 "HgN/A
11:00 AM99 °FPassing clouds.12 mph47%29.42 "HgN/A
10:00 AM95 °FSunny.10 mph56%29.42 "Hg10 mi
9:00 AM91 °FSunny.9 mph63%29.45 "Hg10 mi
8:00 AM90 °FPartly sunny.8 mph71%29.45 "HgN/A
7:00 AM88 °FPartly sunny.9 mph75%29.42 "Hg5 mi
6:00 AM88 °FClear.9 mph75%29.42 "Hg5 mi
5:00 AM88 °FClear.9 mph79%29.39 "Hg5 mi
4:00 AM88 °FClear.10 mph79%29.39 "Hg5 mi
3:00 AM90 °FClear.9 mph75%29.39 "Hg5 mi
2:00 AM90 °FHot.8 mph75%29.42 "Hg5 mi
1:00 AM91 °FClear.8 mph71%29.42 "Hg5 mi
12:00 AM91 °FClear.8 mph67%29.42 "Hg5 mi
11:00 PM
Mon, Jul 6
93 °FClear.5 mph63%29.45 "Hg5 mi
10:00 PM93 °FClear.8 mph59%29.45 "Hg5 mi
9:00 PM97 °FClear.5 mph32%29.42 "Hg5 mi
8:00 PM99 °FClear.8 mph35%29.42 "Hg4 mi
7:00 PM99 °FClear.6 mph42%29.39 "Hg4 mi
6:00 PM99 °FClear.8 mph42%29.42 "Hg4 mi
5:00 PM99 °FClear.10 mph44%29.42 "Hg4 mi
4:00 PM100 °FClear.6 mph42%29.42 "Hg4 mi
3:00 PM100 °FClear.9 mph40%29.45 "Hg4 mi
Weather by CustomWeather, © 2015

See weather overviewHow to use our weather pages